Grand Etang, Nova Scotia

9:23 AM ADT on July 23, 2017 (GMT -0300)
Grand Etang

Weather History for CWZQ - November, 2012

Change the Weather History Date:

Thursday, November 8, 2012

  Actual Average Record
Temperature  
Mean Temperature 48 °F -  
Max Temperature 55 °F - - ()
Min Temperature 40 °F - - ()
Degree Days  
Heating Degree Days 18    
Moisture  
Dew Point 42 °F    
Average Humidity 79    
Maximum Humidity 87    
Minimum Humidity 70    
Precipitation  
Precipitation 0.00 in - - ()
Sea Level Pressure  
Sea Level Pressure 29.77 in    
Wind  
Wind Speed 26 mph ()    
Max Wind Speed 45 mph    
Max Gust Speed 67 mph    
T = Trace of Precipitation, MM = Missing Value Source: Averaged Metar Reports

Daily Weather History Graph

Daily Weather History Graph

Search for Another Location

Airport or City:

Trip Planner

Search our weather history database for the weather conditions in past years. The results will help you decide how hot, cold, wet, or windy it might be!

Date:

Astronomy

Nov. 08, 2012 Rise Set
Actual Time 6:56 AM AST 4:38 PM AST
Civil Twilight 6:24 AM AST 5:10 PM AST
Nautical Twilight 5:48 AM AST 5:46 PM AST
Astronomical Twilight 5:12 AM AST 6:22 PM AST
Moon 12:26 AM AST (11/8) 1:35 PM AST (11/8)
Length of Visible Light 10h 46m
Length of Day
9h 41m
Waning Crescent, 33% of the Moon is Illuminated
Nov 8
Waning Crescent
Nov 13
New
Nov 20
First Quarter
Nov 28
Full
Dec 6
Last Quarter

Hourly Weather History & Observations

Time (AST) Temp. Windchill Dew Point Humidity Pressure Visibility Wind Dir Wind Speed Gust Speed Precip Events Conditions
12:00 AM 40.8 °F 32.3 °F 35.1 °F 80% 30.01 in - NE 17.3 mph 27.6 mph N/A   Unknown
12:20 AM 40.8 °F 33.3 °F 36.0 °F 83% - - NNE 13.8 mph 24.2 mph N/A   Unknown
12:40 AM 41.2 °F 36.0 °F 36.1 °F 82% - - North 8.1 mph - N/A   Unknown
1:00 AM 41.2 °F 33.4 °F 36.0 °F 82% 29.99 in - ENE 15.0 mph 38.0 mph N/A   Unknown
1:20 AM 41.5 °F 34.2 °F 36.3 °F 82% - - NE 13.8 mph 34.5 mph N/A   Unknown
1:40 AM 41.2 °F 34.1 °F 36.1 °F 82% - - ENE 12.7 mph 23.0 mph N/A   Unknown
2:00 AM 42.1 °F 33.3 °F 36.5 °F 81% 29.98 in - NNE 19.6 mph - N/A   Unknown
2:40 AM 42.3 °F 34.4 °F 36.9 °F 81% - - NNE 16.1 mph 25.3 mph N/A   Unknown
3:00 AM 42.8 °F 35.1 °F 37.4 °F 81% 29.94 in - NNE 16.1 mph 26.5 mph N/A   Unknown
3:20 AM 43.3 °F 36.5 °F 37.8 °F 81% - - NNE 13.8 mph 29.9 mph N/A   Unknown
3:40 AM 43.7 °F 36.6 °F 37.6 °F 79% - - NE 15.0 mph 28.8 mph N/A   Unknown
4:00 AM 44.1 °F 35.0 °F 38.1 °F 80% 29.87 in - ENE 24.2 mph 39.1 mph N/A   Unknown
4:40 AM 45.3 °F 34.1 °F 38.3 °F 76% - - East 42.6 mph 65.6 mph N/A   Unknown
5:00 AM 45.5 °F 34.2 °F 38.7 °F 77% 29.81 in - East 43.7 mph 59.8 mph N/A   Unknown
5:20 AM 45.7 °F 34.3 °F 38.8 °F 77% - - East 44.9 mph 59.8 mph N/A   Unknown
5:40 AM 46.2 °F 35.2 °F 39.0 °F 76% - - East 43.7 mph 64.4 mph N/A   Unknown
6:00 AM 45.9 °F 34.6 °F 39.0 °F 77% 29.80 in - East 44.9 mph 64.4 mph N/A   Unknown
6:20 AM 45.7 °F 34.5 °F 39.2 °F 78% - - East 43.7 mph 66.7 mph N/A   Unknown
6:40 AM 45.7 °F 34.3 °F 39.0 °F 78% - - East 44.9 mph 62.1 mph N/A   Unknown
7:00 AM 45.9 °F 34.6 °F 39.4 °F 78% 29.80 in - East 44.9 mph 63.3 mph N/A   Unknown
7:20 AM 46.6 °F - 39.0 °F 75% - - East 44.9 mph 64.4 mph N/A   Unknown
7:40 AM 46.8 °F - 39.6 °F 76% - - East 43.7 mph 61.0 mph N/A   Unknown
8:00 AM 46.9 °F - 40.1 °F 77% 29.82 in - East 44.9 mph 56.4 mph N/A   Unknown
8:20 AM 46.6 °F - 40.5 °F 79% - - East 40.3 mph 55.2 mph N/A   Unknown
8:40 AM 47.5 °F - 39.9 °F 75% - - East 41.4 mph 61.0 mph N/A   Unknown
9:00 AM 47.5 °F - 40.1 °F 76% 29.81 in - East 43.7 mph 63.3 mph N/A   Unknown
9:20 AM 47.8 °F - 40.3 °F 75% - - East 43.7 mph 64.4 mph N/A   Unknown
9:40 AM 48.2 °F - 40.6 °F 75% - - East 39.1 mph 54.1 mph N/A   Unknown
10:00 AM 48.6 °F - 40.6 °F 74% 29.81 in - East 43.7 mph 63.3 mph N/A   Unknown
10:20 AM 49.6 °F - 41.2 °F 73% - - East 38.0 mph 54.1 mph N/A   Unknown
10:40 AM 49.8 °F - 41.2 °F 72% - - East 35.7 mph 51.8 mph N/A   Unknown
11:00 AM 50.5 °F - 41.9 °F 72% 29.81 in - East 40.3 mph 46.0 mph N/A   Unknown
11:20 AM 50.7 °F - 42.3 °F 73% - - East 34.5 mph 51.8 mph N/A   Unknown
11:40 AM 50.9 °F - 42.4 °F 73% - - East 31.1 mph 47.2 mph N/A   Unknown
12:00 PM 51.8 °F - 43.0 °F 72% 29.80 in - East 34.5 mph 43.7 mph N/A   Unknown
12:20 PM 50.9 °F - 42.4 °F 73% - - East 32.2 mph 44.9 mph N/A   Unknown
12:40 PM 51.3 °F - 42.6 °F 72% - - East 29.9 mph 43.7 mph N/A   Unknown
1:00 PM 51.4 °F - 43.0 °F 73% 29.78 in - East 32.2 mph - N/A   Unknown
1:20 PM 53.2 °F - 43.7 °F 70% - - East 28.8 mph 41.4 mph N/A   Unknown
1:40 PM 51.6 °F - 43.3 °F 73% - - East 24.2 mph 43.7 mph N/A   Unknown
2:00 PM 51.1 °F - 43.3 °F 75% 29.75 in - East 28.8 mph 44.9 mph N/A   Unknown
2:20 PM 51.6 °F - 43.9 °F 75% - - East 25.3 mph 36.8 mph N/A   Unknown
2:40 PM 51.1 °F - 43.7 °F 76% - - East 23.0 mph 40.3 mph N/A   Unknown
3:00 PM 50.9 °F - 43.5 °F 76% 29.78 in - East 28.8 mph - N/A   Unknown
3:20 PM 49.8 °F - 44.2 °F 81% - - East 21.9 mph 32.2 mph N/A   Unknown
3:40 PM 49.5 °F - 44.6 °F 83% - - East 23.0 mph 34.5 mph N/A   Unknown
4:00 PM 49.6 °F - 44.1 °F 81% 29.74 in - East 26.5 mph 43.7 mph N/A   Unknown
4:20 PM 50.2 °F - 44.2 °F 80% - - East 27.6 mph 40.3 mph N/A   Unknown
4:40 PM 50.0 °F - 44.8 °F 82% - - East 27.6 mph 40.3 mph N/A   Unknown
5:00 PM 49.6 °F - 45.1 °F 84% 29.73 in - East 28.8 mph 39.1 mph N/A   Unknown
5:20 PM 49.5 °F - 45.1 °F 85% - - East 29.9 mph 42.6 mph N/A   Unknown
5:40 PM 49.5 °F - 45.0 °F 84% - - East 28.8 mph 42.6 mph N/A   Unknown
6:00 PM 49.5 °F - 45.1 °F 85% 29.68 in - East 32.2 mph 44.9 mph N/A   Unknown
6:20 PM 49.5 °F - 45.3 °F 86% - - East 31.1 mph 40.3 mph N/A   Unknown
6:40 PM 49.6 °F - 45.0 °F 84% - - ENE 26.5 mph 43.7 mph N/A   Unknown
7:00 PM 49.5 °F - 45.1 °F 85% 29.65 in - East 31.1 mph 44.9 mph N/A   Unknown
7:20 PM 49.8 °F - 45.3 °F 84% - - East 23.0 mph 44.9 mph N/A   Unknown
7:40 PM 49.5 °F - 45.7 °F 87% - - East 27.6 mph 46.0 mph N/A   Unknown
8:00 PM 50.0 °F - 45.5 °F 85% 29.61 in - ENE 28.8 mph 42.6 mph N/A   Unknown
8:20 PM 50.2 °F - 45.3 °F 83% - - East 34.5 mph 51.8 mph N/A   Unknown
8:40 PM 50.0 °F - 45.7 °F 85% - - East 40.3 mph 55.2 mph N/A   Unknown
9:00 PM 50.4 °F - 45.1 °F 82% 29.53 in - East 42.6 mph 56.4 mph N/A   Unknown
9:20 PM 50.9 °F - 45.5 °F 82% - - East 43.7 mph 61.0 mph N/A   Unknown
9:40 PM 50.9 °F - 46.4 °F 85% - - East 38.0 mph 55.2 mph N/A   Unknown
10:00 PM 52.9 °F - 48.2 °F 84% 29.47 in - East 43.7 mph - N/A   Unknown
10:20 PM 55.2 °F - 49.5 °F 81% - - East 32.2 mph 46.0 mph N/A   Unknown
10:40 PM 54.7 °F - 49.3 °F 82% - - ESE 23.0 mph 39.1 mph N/A   Unknown
11:00 PM 55.8 °F - 50.5 °F 83% 29.44 in - ESE 34.5 mph - N/A   Unknown
11:20 PM 54.5 °F - 49.8 °F 84% - - South 11.5 mph 27.6 mph N/A   Unknown
11:40 PM 55.4 °F - 51.1 °F 85% - - West 10.4 mph - N/A   Unknown